Location: Riverton
(43.0250°N, 108.3790°W)
Time: 17:10:59
(UTC-06:00)

JAS-2 - Visible Passes

Search period start: 04 September 2015 00:00
Search period end: 14 September 2015 00:00
Orbit: 801 x 1321 km, 98.5° (Epoch: 04 September)

Date Brightness Start Highest point End Pass type
(mag) Time Alt. Az. Time Alt. Az. Time Alt. Az.
04 Sep 11.9 02:41:35 10° NE 02:44:22 13° E 02:47:26 10° ESE visible
04 Sep 9.6 04:23:56 10° NNE 04:30:54 85° ESE 04:34:12 30° S visible
04 Sep 11.1 06:10:21 10° NNW 06:15:01 19° NW 06:19:08 10° W visible
05 Sep 10.9 03:29:30 10° NNE 03:35:29 33° E 03:38:17 23° SE visible
05 Sep 10.1 05:14:19 10° N 05:20:45 43° WNW 05:24:45 19° SW visible
06 Sep 12.0 02:37:23 10° ENE 02:39:19 12° E 02:41:39 10° ESE visible
06 Sep 9.6 04:19:08 10° NNE 04:25:57 80° ESE 04:28:51 34° S visible
06 Sep 11.1 06:05:27 10° NNW 06:10:10 20° WNW 06:14:19 10° W visible
07 Sep 11.0 03:24:47 10° NNE 03:30:29 31° E 03:32:56 23° SE visible
07 Sep 10.0 05:09:28 10° N 05:15:51 45° WNW 05:19:24 22° SW visible
08 Sep 12.0 02:33:43 10° ENE 02:34:16 10° ENE 02:35:19 10° E visible
08 Sep 9.6 04:14:19 10° NNE 04:21:00 75° ESE 04:23:29 38° S visible
08 Sep 11.0 06:00:33 10° NNW 06:05:18 20° WNW 06:09:30 10° W visible
09 Sep 11.0 03:20:04 10° NNE 03:25:28 28° E 03:27:34 23° ESE visible
09 Sep 9.9 05:04:37 10° N 05:10:57 47° WNW 05:14:02 26° SW visible
10 Sep 9.7 04:09:31 10° NNE 04:16:02 69° E 04:18:08 42° S visible
10 Sep 10.9 05:55:39 10° N 06:00:26 21° WNW 06:04:35 10° WSW visible
11 Sep 11.1 03:15:22 10° NE 03:20:27 25° E 03:22:12 22° ESE visible
11 Sep 9.7 04:59:45 10° N 05:06:01 50° WNW 05:08:40 30° SW visible
12 Sep 9.7 04:04:42 10° NNE 04:11:04 64° E 04:12:45 45° SSE visible
12 Sep 10.8 05:50:44 10° N 05:55:32 22° WNW 05:59:13 12° WSW visible
13 Sep 11.2 03:10:40 10° NE 03:15:25 23° E 03:16:50 21° ESE visible
13 Sep 9.6 04:54:54 10° N 05:01:05 53° WNW 05:03:18 34° SW visible
